Orbital Elements at Epoch 2459200.5 (2020-Dec-17.0) TDB
Reference: JPL 13 (heliocentric ecliptic J2000)
Element | Value | Uncertainty (1-sigma) | Units |
e | .1840434708867228 | 4.9796e-08 | |
a | 2.378234247496122 | 9.0129e-09 | au |
q | 1.940535762005263 | 1.1869e-07 | au |
i | 2.277503736179725 | 5.5956e-06 | deg |
node | 44.50647575207791 | 0.0001098 | deg |
peri | 334.2035254257089 | 0.00011046 | deg |
M | 124.4587389727649 | 1.1032e-05 | deg |
tp | 2458737.369624981063 (2019-Sep-10.86962498) | 4.077e-05 | TDB |
period | 1339.616136101958 3.67 | 7.6152e-06 2.085e-08 | d yr |
n | .2687336993771478 | 1.5276e-09 | deg/d |
Q | 2.815932732986982 | 1.0672e-08 | au |
|
| | Orbit Determination Parameters
Additional Information
|